Weather in Saumur

France     47°15′56″N   0°04′04″E
temp.,
°C
wind,
m/s
gust,
m/s
humid.,
%
clouds,
%
prec.,
mm/h
press.,
hPa
HPBL,
m
16 april, fri
fri1623:00+3nne410720 0.0 1027199
02:00+1nne410910 0.0 1027194
05:000nne410925 0.0 1027176
08:00+1nne410855 0.0 1027210
11:00+8ne57560 0.0 1028852
14:00+11ne674274 0.0 10262254
17:00+11ne684396 0.0 10251988
20:00+9nne595962 0.0 1026437
17 april, sat
sat1723:00+4nne410755 0.0 1027183
02:00+2nne48865 0.0 1027150
05:00+1n38935 0.0 1026154
08:00+2nne410895 0.0 1027244
11:00+9nne57605 0.0 1026799
14:00+12nne6751100 0.0 10241876
17:00+11nne4758100 0.0 10241410
20:00+10n4865100 0.0 1024312
18 april, sun
sun1823:00+8n497230 0.0 1025235
02:00+4n36935 0.0 1025109
05:00+2n22925 0.0 102532
08:00+3n23905 0.0 102567
11:00+10n336547 0.0 1025630
14:00+13n225217 0.0 10241462
17:00+15nnw234726 0.0 10221760
20:00+12nne336333 0.0 102241
19 april, mon
mon1923:00+8ene336785 0.0 102344
02:00+8e2470100 0.0 102295
05:00+7e237651 0.0 102169
08:00+6e118450 0.0 102118
11:00+13ese335569 0.0 10201028
14:00+15e3246100 0.0 10191906
17:00+15e2246100 0.0 10171850
20:00+12e3663100 0.0 1017170
20 april, tue
tue2023:00+10e2362100 0.0 101755
02:00+10e2264100 0.0 101633
05:00+9e1169100 0.0 101515
08:00+9ne1174100 0.0 101536
11:00+10e2265100 0.0 1015367
14:00+14ene2356100 0.0 10141373
17:00+15ne1252100 0.3 10131347
20:00+13nw2268100 0.8 101317